• In Uzbekistan
  • List of Countries
  • For 7 days
  • Water Temperature
  • Weather Map
  • Weather Widgets
  • user-avatar
    Login

    Hourly Weather Dumfries

    Today, 13 December, Friday

    Time Temperature Precipitation Wind Pressure Humidity
    00:00 +3°C° 0.7 mm 2 mps 724 mmHg 97%
    01:00 +4°C° 0.5 mm 2 mps 723 mmHg 97%
    02:00 +4°C° 0.5 mm 2 mps 723 mmHg 97%
    03:00 +3°C° 0.5 mm 3 mps 723 mmHg 96%
    04:00 +3°C° 0.1 mm 3 mps 723 mmHg 95%
    05:00 +3°C° 0.1 mm 3 mps 723 mmHg 94%
    06:00 +3°C° 0.1 mm 3 mps 723 mmHg 94%
    07:00 +2°C° 0.1 mm 3 mps 724 mmHg 92%
    08:00 +2°C° 0.1 mm 3 mps 724 mmHg 91%
    09:00 +2°C° 0.1 mm 3 mps 725 mmHg 90%
    10:00 +3°C° 0 mm 3 mps 725 mmHg 88%
    11:00 +3°C° 0 mm 4 mps 725 mmHg 86%
    12:00 +4°C° 0 mm 4 mps 726 mmHg 84%
    13:00 +4°C° 0 mm 4 mps 726 mmHg 84%
    14:00 +3°C° 0 mm 3 mps 726 mmHg 85%
    15:00 +3°C° 0 mm 3 mps 726 mmHg 85%
    16:00 +3°C° 0 mm 3 mps 726 mmHg 87%
    17:00 +3°C° 0 mm 2 mps 726 mmHg 89%
    18:00 +3°C° 0 mm 2 mps 726 mmHg 90%
    19:00 +3°C° 0 mm 2 mps 726 mmHg 91%
    20:00 +2°C° 0 mm 2 mps 726 mmHg 92%
    21:00 +2°C° 0 mm 2 mps 726 mmHg 93%
    22:00 +3°C° 0.2 mm 2 mps 726 mmHg 93%
    23:00 +2°C° 0.2 mm 3 mps 726 mmHg 92%

    Tomorrow, 14 December, Saturday

    Time Temperature Precipitation Wind Pressure Humidity
    00:00 +2°C° 0.2 mm 3 mps 725 mmHg 91%
    01:00 +1°C° 0.3 mm 4 mps 725 mmHg 90%
    02:00 +3°C° 0.3 mm 4 mps 725 mmHg 89%
    03:00 +2°C° 0.3 mm 5 mps 725 mmHg 87%
    04:00 +2°C° 0.2 mm 6 mps 725 mmHg 88%
    05:00 +1°C° 0.2 mm 6 mps 725 mmHg 89%
    06:00 +1°C° 0.2 mm 6 mps 725 mmHg 90%
    07:00 +1°C° 0.2 mm 6 mps 725 mmHg 86%
    08:00 +1°C° 0.2 mm 6 mps 725 mmHg 82%
    09:00 +1°C° 0.2 mm 6 mps 725 mmHg 78%
    10:00 +2°C° 0.1 mm 7 mps 726 mmHg 77%
    11:00 +2°C° 0.1 mm 7 mps 726 mmHg 77%
    12:00 +1°C° 0.1 mm 8 mps 726 mmHg 76%
    13:00 +1°C° 0.2 mm 8 mps 726 mmHg 80%
    14:00 0°C° 0.2 mm 9 mps 727 mmHg 83%
    15:00 0°C° 0.2 mm 9 mps 727 mmHg 87%
    16:00 0°C° 0.3 mm 8 mps 728 mmHg 84%
    17:00 0°C° 0.3 mm 7 mps 728 mmHg 82%
    18:00 0°C° 0.3 mm 7 mps 729 mmHg 80%
    19:00 -1°C° 0 mm 6 mps 729 mmHg 81%
    20:00 -1°C° 0 mm 6 mps 729 mmHg 83%
    21:00 0°C° 0 mm 5 mps 730 mmHg 85%
    22:00 0°C° 0 mm 5 mps 730 mmHg 84%
    23:00 0°C° 0 mm 4 mps 730 mmHg 83%

    Day after tomorrow, 15 December, Sunday

    Time Temperature Precipitation Wind Pressure Humidity
    00:00 0°C° 0 mm 4 mps 730 mmHg 82%
    01:00 -1°C° 0 mm 4 mps 731 mmHg 81%
    02:00 -1°C° 0 mm 4 mps 731 mmHg 80%
    03:00 -1°C° 0 mm 4 mps 731 mmHg 80%
    04:00 -1°C° 0.1 mm 4 mps 732 mmHg 79%
    05:00 -1°C° 0.1 mm 4 mps 732 mmHg 79%
    06:00 -1°C° 0.1 mm 4 mps 732 mmHg 79%
    07:00 -1°C° 0 mm 4 mps 732 mmHg 80%
    08:00 -1°C° 0 mm 5 mps 733 mmHg 80%
    09:00 -1°C° 0 mm 5 mps 733 mmHg 81%
    10:00 -1°C° 0 mm 4 mps 733 mmHg 82%
    11:00 0°C° 0 mm 4 mps 734 mmHg 83%
    12:00 +1°C° 0 mm 3 mps 734 mmHg 84%
    13:00 +1°C° 0.1 mm 3 mps 735 mmHg 87%
    14:00 +2°C° 0.1 mm 2 mps 735 mmHg 90%
    15:00 +2°C° 0.1 mm 2 mps 735 mmHg 93%
    16:00 +2°C° 0.2 mm 2 mps 736 mmHg 92%
    17:00 +2°C° 0.2 mm 2 mps 736 mmHg 92%
    18:00 +2°C° 0.2 mm 2 mps 736 mmHg 91%
    19:00 +2°C° 0 mm 2 mps 737 mmHg 91%
    20:00 +2°C° 0 mm 2 mps 737 mmHg 91%
    21:00 +2°C° 0 mm 1 mps 737 mmHg 90%
    22:00 +2°C° 0 mm 1 mps 738 mmHg 90%
    23:00 +2°C° 0 mm 1 mps 738 mmHg 90%

    16 December, Monday

    Time Temperature Precipitation Wind Pressure Humidity
    00:00 +2°C° 0 mm 1 mps 738 mmHg 89%
    01:00 +2°C° 0 mm 1 mps 738 mmHg 90%
    02:00 +2°C° 0 mm 1 mps 738 mmHg 91%
    03:00 +2°C° 0 mm 1 mps 737 mmHg 91%
    04:00 +2°C° 0.1 mm 1 mps 738 mmHg 92%
    05:00 +2°C° 0.1 mm 1 mps 738 mmHg 92%
    06:00 +2°C° 0.1 mm 1 mps 738 mmHg 92%
    07:00 +2°C° 0.3 mm 1 mps 738 mmHg 93%
    08:00 +2°C° 0.3 mm 1 mps 739 mmHg 94%
    09:00 +2°C° 0.3 mm 1 mps 739 mmHg 95%
    10:00 +3°C° 0.2 mm 1 mps 740 mmHg 94%
    11:00 +3°C° 0.2 mm 1 mps 740 mmHg 94%
    12:00 +3°C° 0.2 mm 1 mps 741 mmHg 93%
    13:00 +3°C° 0 mm 1 mps 742 mmHg 93%
    14:00 +2°C° 0 mm 2 mps 742 mmHg 93%
    15:00 +2°C° 0 mm 2 mps 743 mmHg 93%
    16:00 +1°C° 0 mm 2 mps 743 mmHg 93%
    17:00 +2°C° 0 mm 1 mps 744 mmHg 93%
    18:00 +1°C° 0 mm 1 mps 745 mmHg 93%
    19:00 +1°C° 0 mm 1 mps 745 mmHg 93%
    20:00 +1°C° 0 mm 1 mps 746 mmHg 92%
    21:00 +1°C° 0 mm 1 mps 746 mmHg 92%
    22:00 +1°C° 0 mm 1 mps 746 mmHg 91%
    23:00 +1°C° 0 mm 1 mps 747 mmHg 91%

    17 December, Tuesday

    Time Temperature Precipitation Wind Pressure Humidity
    00:00 0°C° 0 mm 0 mps 747 mmHg 91%
    01:00 0°C° 0 mm 0 mps 747 mmHg 91%
    02:00 0°C° 0 mm 0 mps 747 mmHg 91%
    03:00 0°C° 0 mm 0 mps 747 mmHg 91%
    04:00 0°C° 0 mm 0 mps 747 mmHg 91%
    05:00 0°C° 0 mm 0 mps 748 mmHg 91%
    06:00 0°C° 0 mm 0 mps 748 mmHg 92%
    07:00 0°C° 0 mm 0 mps 748 mmHg 92%
    08:00 0°C° 0 mm 0 mps 748 mmHg 92%
    09:00 0°C° 0 mm 0 mps 749 mmHg 92%
    10:00 +1°C° 0 mm 0 mps 749 mmHg 91%
    11:00 +1°C° 0 mm 0 mps 749 mmHg 89%
    12:00 +2°C° 0 mm 0 mps 749 mmHg 88%
    13:00 +2°C° 0 mm 0 mps 749 mmHg 89%
    14:00 +2°C° 0 mm 0 mps 750 mmHg 90%
    15:00 +1°C° 0 mm 0 mps 750 mmHg 92%
    16:00 +1°C° 0 mm 0 mps 750 mmHg 92%
    17:00 +1°C° 0 mm 0 mps 751 mmHg 92%
    18:00 +1°C° 0 mm 0 mps 751 mmHg 92%
    19:00 +1°C° 0 mm 0 mps 752 mmHg 92%
    20:00 +1°C° 0 mm 0 mps 752 mmHg 92%
    21:00 +2°C° 0 mm 1 mps 753 mmHg 92%
    22:00 +2°C° 0 mm 1 mps 753 mmHg 92%
    23:00 +2°C° 0 mm 1 mps 754 mmHg 92%

    18 December, Wednesday

    Time Temperature Precipitation Wind Pressure Humidity
    00:00 +2°C° 0 mm 1 mps 754 mmHg 92%
    01:00 +2°C° 0 mm 1 mps 754 mmHg 93%
    02:00 +2°C° 0 mm 1 mps 754 mmHg 93%
    03:00 +2°C° 0 mm 1 mps 754 mmHg 94%
    04:00 +2°C° 0 mm 1 mps 755 mmHg 94%
    05:00 +2°C° 0 mm 1 mps 755 mmHg 94%
    06:00 +2°C° 0 mm 1 mps 755 mmHg 94%
    07:00 +2°C° 0 mm 1 mps 755 mmHg 93%
    08:00 +2°C° 0 mm 1 mps 755 mmHg 93%
    09:00 +2°C° 0 mm 1 mps 755 mmHg 93%
    10:00 +3°C° 0 mm 1 mps 755 mmHg 93%
    11:00 +4°C° 0 mm 1 mps 755 mmHg 93%
    12:00 +4°C° 0 mm 2 mps 756 mmHg 93%
    13:00 +4°C° 0 mm 1 mps 755 mmHg 93%
    14:00 +4°C° 0 mm 1 mps 755 mmHg 93%
    15:00 +4°C° 0 mm 1 mps 755 mmHg 93%
    16:00 +3°C° 0 mm 1 mps 755 mmHg 94%
    17:00 +3°C° 0 mm 1 mps 755 mmHg 94%
    18:00 +3°C° 0 mm 1 mps 755 mmHg 94%
    19:00 +3°C° 0 mm 1 mps 755 mmHg 94%
    20:00 +2°C° 0 mm 1 mps 754 mmHg 93%
    21:00 +2°C° 0 mm 1 mps 754 mmHg 93%
    22:00 +2°C° 0 mm 1 mps 754 mmHg 93%
    23:00 +2°C° 0 mm 1 mps 754 mmHg 93%
    Show more